Regional Weather Roundup
Issued by NWS

Home | Current Version | Previous Version | Text Only | Print | Product List | Glossary Off
Versions: 1 2 3 4 5 6 7 8 9 10 11 12 13 14 15 16 17 18 19 20 21 22 23 24 25 26 27

000
ASUS45 KCYS 161610
RWRWY

WYOMING REGIONAL WEATHER ROUNDUP
NATIONAL WEATHER SERVICE CHEYENNE WY
900 AM MST MON JAN 16 2017

NOTE:  "FAIR" INDICATES FEW OR NO CLOUDS BELOW 12,000 FEET
WITH NO SIGNIFICANT WEATHER AND/OR OBSTRUCTIONS TO VISIBILITY.

WYZ001-161700-
YELLOWSTONE NATIONAL PARK

CITY           SKY/WX    TMP DP  RH WIND       PRES   REMARKS
LK YELLOWSTONE   N/A    -19 -21  90 CALM      30.20R
W YELLOWSTONE  NOT AVBL

$$
WYZ002>013-054>058-071-098>099-161700-
NORTHERN WYOMING

CITY           SKY/WX    TMP DP  RH WIND       PRES   REMARKS
JACKSON        CLEAR    -15 -18  84 CALM      30.26R
CODY           FAIR      19   8  62 W3        30.16S
GREYBULL       FAIR     -15 -18  86 CALM      30.26R
WORLAND        FAIR     -11 -13  91 CALM      30.23R
SHERIDAN       FAIR      20   4  50 VRB5      30.16R WCI  13
BUFFALO        FAIR      22   2  42 S3        30.14R
GILLETTE       FAIR      23   9  55 W8        30.14R WCI  14
HULETT         FAIR      21   7  53 MISG      30.13S
NEWCASTLE      FAIR      14   3  62 NW12      30.11R WCI   0

$$
WYZ014>020-022>026-101>103-161700-
CENTRAL WYOMING

CITY           SKY/WX    TMP DP  RH WIND       PRES   REMARKS
BIG PINEY      FAIR     -22 -27  77 NW6       30.20R WCI -38
PINEDALE       FAIR     -20 -27  69 NW7       30.19R WCI -37
DUBOIS         NOT AVBL
LANDER         FAIR       1  -1  91 CALM      30.18R FOG
RIVERTON       FAIR       0  -1  96 CALM      30.19S FOG
CASPER         FAIR      16  10  77 SW10      30.16R WCI   4
DOUGLAS        FAIR      19  10  68 NW16      30.14R WCI   4

$$
WYZ021-027>030-104>119-161700-
SOUTHERN WYOMING

CITY           SKY/WX    TMP DP  RH WIND       PRES   REMARKS
EVANSTON       CLOUDY     0  -5  79 CALM      30.17R HAZE
ROCK SPRINGS   FOG       -8 -11  86 SW6       30.18R VSB<1/4 WCI -21
RAWLINS        FAIR       6   0  76 N3        30.11S
LARAMIE        CLOUDY    20  17  88 W3        30.07R
CHEYENNE       CLOUDY    31  14  49 N9        30.05R WCI  23
TORRINGTON     CLOUDY    34  20  56 NW10      30.07R WCI  26

$$




USA.gov is the U.S. government's official web portal to all federal, state and local government web resources and services.